Regional Weather Roundup
Issued by NWS

Home | Current Version | Previous Version | Text Only | Print | Product List | Glossary Off
Versions: 1 2 3 4 5 6 7 8 9 10 11 12 13 14 15 16 17 18 19 20 21 22 23 24 25 26 27 28 29 30 31 32 33 34 35 36 37 38 39 40 41 42 43 44 45 46 47 48 49 50

000
ASUS43 KMPX 110701
RWRMN
WEATHER ROUNDUP FOR MINNESOTA
NATIONAL WEATHER SERVICE TWIN CITIES/CHANHASSEN MN
100 AM CST THU FEB 11 2016


NOTE: "FAIR" INDICATES FEW OR NO CLOUDS BELOW 12,000 FEET WITH NO
SIGNIFICANT WEATHER AND/OR OBSTRUCTIONS TO VISIBILITY. N/A MEANS
CURRENT SKY AND/OR WEATHER CONDITIONS ARE NOT AVAILABLE.

MNZ060>063-068>070-110800-
   Twin Cities Metro

CITY           SKY/WX    TMP DP  RH WIND       PRES   REMARKS
TWIN CITIES    PTCLDY     9  -4  55 CALM      30.28S
ST PAUL        PTCLDY     8  -3  61 NW3       30.30S
CRYSTAL        MOCLDY     4  -4  69 N3        30.27S
BLAINE         CLEAR      7   0  72 N3        30.27S
LAKEVILLE      PTCLDY     1  -2  85 NW3       30.27R
EDEN PRAIRIE   PTCLDY     8  -3  61 CALM      30.27S
SOUTH ST PAUL  CLEAR      5  -3  67 CALM      30.29R
LAKE ELMO      FAIR       1  -4  78 CALM      30.27S
$$
MNZ001>005-007-008-013>017-022>024-027-028-110800-
   Northwest Minnesota

CITY           SKY/WX    TMP DP  RH WIND       PRES   REMARKS
BEMIDJI        CLOUDY   -15 -19  81 CALM      30.23F
HALLOCK        CLOUDY    -6 -11  77 CALM      30.29S
ROSEAU         CLOUDY   -13 -18  77 CALM      30.27S
WARROAD        CLOUDY   -11 -18  70 SW3       30.26S
THIEF RVR FALL CLOUDY    -6 -15  65 CALM      30.27F
CROOKSTON      PTCLDY     0  -6  78 CALM      30.30F
FOSSTON        CLOUDY   -15 -20  76 CALM      30.25F
DETROIT LAKES  CLOUDY     3   0  85 CALM      30.25S
MOORHEAD       CLOUDY     3  -2  78 NE5       30.30S WCI  -6
PARK RAPIDS    CLOUDY    -7 -13  75 CALM      30.22F
MAHNOMEN       FAIR      -6 -10  81 E3        30.25F
$$
MNZ006-009>011-018-025>026-110800-
   North Central Minnesota

CITY           SKY/WX    TMP DP  RH WIND       PRES   REMARKS
BAUDETTE       CLOUDY   -19 -26  70 CALM      30.24S
FLAG ISLAND    CLOUDY    -8 -13  77 CALM      30.25R
INTL FALLS     CLOUDY   -22 -28  74 CALM      30.24R
WASKISH        CLOUDY   -18 -24  76 CALM      30.25F
LONGVILLE      CLOUDY   -11 -15  84 CALM      30.24S
GRAND RAPIDS   CLOUDY   -11 -20  64 CALM      30.22S
CRANE LAKE     CLOUDY   -24 -29  76 CALM      30.26S
ORR            CLOUDY   -17 -22  76 CALM      30.20R
COOK           CLOUDY   -24 -29  76 CALM      30.23R
WALKER         FAIR      -9 -13  81 NW3       30.24R
$$
MNZ012-019>021-037-110800-
   Northeast Minnesota

CITY           SKY/WX    TMP DP  RH WIND       PRES   REMARKS
DULUTH         PTCLDY    -6 -13  71 NW8       30.19R WCI -21
ELY            CLOUDY   -24 -29  76 CALM      30.20R
HIBBING        CLOUDY   -20 -24  82 CALM      30.22R
EVELETH        CLOUDY   -17 -22  76 W3        30.23R
DULUTH HARBOR  CLOUDY     3  -6  66 W9        30.30R WCI -11
TWO HARBORS    CLEAR     -4 -11  71 CALM      30.19R
SILVER BAY     CLEAR     -6 -11  77 CALM      30.18S
GRAND MARAIS     N/A     -8 -14  74 NW3       30.24R
G MARAIS ARPRT CLEAR     -8 -15  71 NW12G17   30.08R WCI -27
$$
MNZ029>031-032-039>041-046>048-054>057-064-110800-
   West Central Minnesota

CITY           SKY/WX    TMP DP  RH WIND       PRES   REMARKS
FERGUS FALLS   CLEAR      7   0  72 N5        30.30S WCI  -2
WHEATON        CLOUDY     5   1  85 CALM      30.30S
MORRIS         CLOUDY     7   3  85 CALM      30.25F
ALEXANDRIA     CLOUDY     8  -4  58 NE3       30.24S
ELBOW LAKE     FAIR       7   3  84 W3        30.26S
WADENA         PTCLDY     0  -8  71 CALM      30.24F
GLENWOOD       CLOUDY     9   1  72 CALM      30.25S
APPLETON       CLOUDY     7   1  78 CALM      30.27F
BENSON         CLOUDY     9   3  78 CALM      30.26F
ORTONVILLE     CLOUDY     9   3  78 NW5       30.27F WCI   0
MADISON        CLOUDY     9   3  78 NW3       30.28S
WILLMAR        FAIR      10   5  79 CALM      30.27S
$$
MNZ033>034-036-042>043-049>051-058-059-110800-
   Central Minnesota

CITY           SKY/WX    TMP DP  RH WIND       PRES   REMARKS
ST CLOUD       PTCLDY     5  -4  66 N5        30.27R WCI  -4
SAUK CENTRE    FAIR       6  -4  64 N5        30.25F WCI  -3
PAYNESVILLE    CLOUDY     6   2  81 CALM      30.25F
AITKIN         CLOUDY    -9 -17  70 CALM      30.23S
PINE RIVER     CLOUDY    -8 -11  84 CALM      30.27S
BRAINERD       CLOUDY    -6 -10  83 CALM      30.25S
STAPLES        CLOUDY    -2  -8  78 CALM      30.24F
LONG PRAIRIE   FAIR       3  -4  72 NW5       30.25S WCI  -6
LITTLE FALLS   PTCLDY     0  -8  71 CALM      30.27F
LITCHFIELD     CLOUDY     9   0  66 CALM      30.27S
BUFFALO        CLOUDY     6  -1  73 CALM      30.29R
MAPLE LAKE     CLOUDY     6   2  83 CALM      30.27S
$$
MNZ037-044-045-052-053-110800-
   East Central Minnesota

CITY           SKY/WX    TMP DP  RH WIND       PRES   REMARKS
PRINCETON      CLEAR      3  -6  66 CALM      30.27S
MORA           CLEAR      0  -8  71 CALM      30.28R
CAMBRIDGE      CLEAR      3  -8  60 CALM      30.26S
RUSH CITY      MOCLDY    -1  -8  72 W3        30.28R
MOOSE LAKE     PTCLDY    -9 -15  77 SW3       30.25R
HINCKLEY       FAIR       0  -8  71 NW3       30.26S
CLOQUET        CLOUDY    -6 -13  71 NW9       30.21S WCI -22
MCGREGOR       CLOUDY    -6 -13  71 NW5       30.25R WCI -17
$$
MNZ071>073-080-081-089-090-097-098-110800-
   Southwest Minnesota

CITY           SKY/WX    TMP DP  RH WIND       PRES   REMARKS
MONTEVIDEO     CLOUDY     7   1  78 CALM      30.29S
GRANITE FALLS  CLOUDY     5   0  81 CALM      30.30R
CANBY          CLOUDY    15   9  80 CALM      30.28S
MARSHALL       CLOUDY    10   5  80 N3        30.27R
REDWOOD FALLS  CLOUDY     5   1  83 W3        30.28R
OLIVIA         CLOUDY    10   3  72 CALM      30.27S
PIPESTONE      CLOUDY    12   3  67 E5        30.21F WCI   4
WINDOM         CLOUDY     3   0  85 CALM      30.24R
WORTHINGTON    CLOUDY    10   3  72 N7        30.23R WCI   0
JACKSON        CLOUDY    12   3  67 VRB6      30.24R WCI   3
TRACY          CLOUDY    12   7  81 N5        30.26R WCI   4
SLAYTON        CLOUDY    11   8  85 N6        30.23S WCI   2
$$
MNZ065>067-074>077-082>085-091>093-110800-
   South Central Minnesota

CITY           SKY/WX    TMP DP  RH WIND       PRES   REMARKS
MANKATO        PTCLDY     7  -2  66 N6        30.26R WCI  -3
NEW ULM        PTCLDY     3  -2  78 CALM      30.27R
ST JAMES       CLOUDY     3   1  92 CALM      30.27S
FAIRMONT       PTCLDY     5  -2  72 MISG      30.24R
GLENCOE        PTCLDY     6   1  80 CALM      30.27R
FARIBAULT        N/A      0  -6  78 CALM      30.26S
OWATONNA       CLOUDY     3  -4  72 CALM      30.24S
WASECA         CLOUDY     3  -4  72 CALM      30.26S
ALBERT LEA     CLOUDY     3  -2  78 CALM      30.23S
$$
MNZ078>079-086>088-094>096-110800-
   Southeast Minnesota

CITY           SKY/WX    TMP DP  RH WIND       PRES   REMARKS
ROCHESTER      CLOUDY     3  -5  69 N8        30.22R WCI -10
RED WING       CLEAR      3  -6  66 CALM      30.28R
STANTON        PTCLDY     4  -1  77 CALM      30.26S
DODGE CENTER   CLOUDY     1  -4  78 N5        30.22S WCI  -8
WINONA         CLEAR      9   0  66 CALM      30.29R
AUSTIN         CLOUDY     3  -2  78 CALM      30.22F
PRESTON        CLOUDY     4  -4  70 NW3       30.23R
$$
ABBREVIATIONS USED IN REMARKS
   TC - TEMPERATURES IN CELSIUS
  WCI - WIND CHILL INDEX
   HX - HEAT INDEX
  VSB - VISIBILITY
$$



USA.gov is the U.S. government's official web portal to all federal, state and local government web resources and services.